SCP
0 0 0 0 0 0 -0 0 0 0 0 0 0 0 0 0 0 0 -0 0 0 0 0 0 0 0 0 1 1 1 0 0 0 0 0 0 0 0 0 0 0 0 0 0
0 0 0 0 0 0 0 0 0 0 0 0 0 0 0 0 0 0 0 0 -0 -0 0 1 1 1 0 0 1 0 0 0 0 0 0 1 0 0 0 0 0 0 0 0
0 0 0 0 0 0 0 0 0 0 0 0 0 0 0 0 0 0 0 0 0 -0 0 0 0 0 0 1 1 0 0 1 1 1 1 1 1 0 0 1 1 0 0 0
0 0 0 0 0 0 0 0 0 0 0 0 0 0 0 0 0 0 0 0 0 0 0 0 0 0 0 0 1 1 1 1 2 1 1 1 1 1 1 0 1 1 1 0
0 0 0 0 0 0 0 0 0 0 0 0 0 0 0 0 0 0 0 0 0 0 0 0 0 0 0 0 0 1 1 1 1 1 1 1 0 1 1 1 0 0 0 1
0 0 0 0 0 0 0 0 0 0 0 0 0 0 0 0 0 0 0 0 0 0 0 0 0 0 0 0 0 0 0 0 0 0 0 0 0 0 0 0 0 0 0 0
0 0 0 0 0 0 0 0 0 0 0 0 0 0 0 0 0 0 0 0 0 0 0 0 0 0 0 0 0 0 0 0 0 0 0 0 0 0 0 0 0 0 0 0
0 0 0 0 0 0 0 0 0 0 1 1 0 0 0 0 0 0 0 0 0 0 0 0 0 0 0 0 0 0 0 0 0 0 0 0 0 0 0 0 0 0 0 0
0 0 0 0 0 0 0 0 0 0 0 0 0 0 0 0 -0 0 0 0 0 0 0 0 0 0 0 0 0 0 0 0 0 0 0 0 0 0 0 0 0 0 0 0
0 0 0 0 0 0 0 0 0 0 0 0 -0 -0 -0 0 0 0 0 0 0 0 0 0 0 0 0 0 0 0 0 0 0 0 0 0 0 0 0 0 0 0 0 0
0 0 0 0 0 0 0 0 0 0 0 0 0 0 0 0 0 0 0 0 0 0 0 0 0 0 0 0 0 0 0 0 0 0 0 0 0 0 0 0 0 0 0 0
0 0 0 0 0 0 0 0 0 0 0 0 0 0 0 0 0 0 0 0 0 0 0 0 0 0 0 0 0 0 0 0 0 0 0 0 0 0 0 0 0 0 0 0
0 0 0 0 0 0 0 0 0 0 0 0 0 0 0 0 0 0 0 0 0 0 0 0 0 0 0 0 0 0 0 0 0 0 0 0 0 0 0 0 0 0 0 0
0 0 0 0 0 0 0 0 0 0 0 0 0 0 0 0 0 0 0 0 0 0 0 0 0 0 0 0 0 0 0 0 0 0 0 0 0 0 0 0 0 0 0 0
0 0 0 0 0 0 0 0 0 0 0 0 0 0 0 0 0 0 0 0 0 0 0 0 0 0 0 0 0 0 0 0 0 0 0 0 0 0 0 0 0 0 0 0
-0 -0 0 0 -0 0 -0 0 0 -0 -0 -0 -0 0 0 0 0 0 0 0 0 0 0 0 0 0 0 0 0 0 0 0 0 0 0 0 0 0 0 0 0 0 0 0
-0 -0 -0 -0 -0 -0 -0 0 -0 -0 -0 -0 -0 0 0 0 0 0 0 0 0 0 0 0 0 0 0 0 0 0 0 0 0 0 0 0 0 0 0 0 0 0 0 0
-0 -0 -0 -0 -0 -0 -0 -0 -0 -0 -0 -0 -0 -0 0 0 0 0 0 0 0 -0 0 0 0 0 0 0 0 0 0 0 0 0 0 0 0 0 0 0 0 0 0 0
-0 0 0 -0 -0 -0 -0 -0 -0 0 0 -0 -0 -0 0 -0 0 0 0 0 0 0 0 0 0 0 0 0 0 0 0 0 0 0 0 0 0 0 0 0 0 0 0 0
-0 -0 -0 -0 -0 -0 -0 -0 -0 -0 -0 -0 -0 -0 -0 -0 0 0 0 0 0 0 0 0 0 0 0 0 0 0 0 0 0 0 0 0 0 0 0 0 0 0 0 0
-0 -0 -0 -0 -0 -0 0 0 0 -0 -0 -0 -0 -0 -0 -0 -0 0 0 0 0 0 0 0 0 0 0 0 0 0 0 0 0 0 0 0 0 0 0 0 0 0 0 0
-0 -0 -0 -0 -0 -0 0 0 -0 -0 -0 -0 -0 -0 -0 0 0 0 0 0 0 0 0 0 0 0 0 0 0 0 0 0 0 0 0 0 0 0 0 0 0 0 0 0
-0 -0 -0 -0 -0 0 0 0 -0 -0 -0 -0 -0 -0 -0 -0 -0 0 0 0 0 0 0 0 0 0 0 0 0 0 0 0 0 0 0 0 0 0 0 0 0 0 0 0
0 0 0 -0 0 0 0 0 0 -0 -0 -0 -0 -0 0 0 0 0 0 0 0 0 0 0 0 0 0 0 0 0 0 0 0 0 0 0 0 0 0 0 0 0 0 0
0 0 0 0 0 0 0 0 0 0 0 0 0 0 0 0 0 0 0 0 0 0 0 0 0 0 0 0 0 0 0 0 0 0 0 0 0 0 0 0 0 0 0 0
0 0 0 0 0 0 0 0 0 0 0 0 0 0 0 0 0 0 0 0 0 0 0 0 0 0 0 0 0 0 0 0 0 0 0 0 0 0 0 0 0 0 0 0
0 0 0 0 0 0 0 0 0 0 0 0 0 0 0 0 0 0 0 0 0 0 0 0 0 0 0 0 0 0 0 0 0 0 0 0 0 0 0 0 0 0 0 0
Wind_Speed_500mb
14 7 8 13 15 13 21 11 17 14 11 16 11 8 15 17 19 16 19 8 10 25 28 35 38 36 49 52 41 52 49 40 35 34 38 36 34 35 37 37 37 41 42 42
18 10 17 20 13 15 11 10 7 7 8 11 15 17 17 18 19 21 20 14 11 9 14 17 23 22 25 33 45 49 48 46 38 46 49 49 49 51 45 46 42 40 38 38
23 4 18 26 27 23 12 8 11 16 12 14 14 12 12 12 13 16 20 16 13 1 13 25 27 42 24 15 20 39 37 44 61 56 51 46 50 48 52 56 50 44 44 39
20 12 23 6 7 9 20 12 12 8 6 8 13 15 12 11 10 13 18 15 14 7 9 16 21 18 19 23 19 23 26 37 39 37 37 44 44 51 48 48 57 68 53 43
15 22 23 12 11 11 18 27 13 14 13 14 19 18 13 12 10 11 15 10 10 12 9 8 17 15 16 18 17 11 14 17 19 23 24 32 43 45 47 48 54 53 62 60
14 18 20 8 11 3 7 20 18 15 21 24 19 11 9 11 8 9 9 11 11 12 8 7 9 11 5 9 9 11 18 17 16 18 20 24 30 37 38 43 43 47 48 60
16 16 15 12 5 5 14 4 5 17 19 19 7 13 24 17 13 11 10 11 12 13 14 12 3 4 10 10 14 15 16 16 13 14 16 21 23 19 19 21 24 31 39 47
9 11 23 10 7 11 10 12 8 12 9 12 23 19 20 15 13 11 9 9 11 12 15 12 10 9 12 15 16 12 12 14 14 11 11 15 13 15 23 19 22 31 29 20
9 9 7 10 14 5 9 9 3 13 17 22 25 25 21 17 15 11 12 11 14 15 14 17 15 11 8 13 14 11 16 16 13 9 5 4 13 2 5 6 4 8 11 12
9 19 18 18 18 16 12 10 15 20 25 26 26 25 22 20 23 14 15 14 13 14 16 18 21 18 18 16 12 13 13 12 9 9 12 4 5 7 7 8 9 11 11 11
20 27 12 21 21 17 15 15 24 21 22 22 26 25 24 24 26 23 14 14 14 16 17 19 21 22 24 25 22 19 18 15 15 14 14 5 7 8 8 6 6 9 13 12
19 10 13 3 20 21 23 25 24 22 22 21 21 23 24 24 25 24 19 16 17 16 19 22 22 24 25 23 21 21 24 24 26 23 22 20 20 18 13 11 8 6 5 6
25 9 12 7 22 26 26 26 24 21 21 24 23 25 26 28 26 27 22 21 20 20 20 22 23 24 24 24 23 26 31 31 30 28 27 26 24 21 17 19 20 20 18 18
19 15 11 20 25 29 27 27 28 24 24 25 27 27 27 29 32 28 27 24 22 21 20 21 20 23 23 22 23 21 23 24 24 21 20 19 21 26 24 20 19 18 16 16
29 27 15 24 27 31 30 30 30 29 28 28 27 28 29 30 30 30 31 24 19 17 16 16 16 17 19 19 20 19 17 15 17 16 18 17 14 15 13 11 12 11 12 10
29 30 23 31 41 40 36 32 29 29 29 30 29 28 28 30 30 29 27 20 17 16 16 15 14 16 17 16 16 14 14 14 13 11 10 9 9 9 10 10 8 8 6 5
31 34 33 35 44 43 41 35 31 33 32 31 28 29 30 30 27 25 23 19 16 13 12 12 12 13 13 12 12 8 7 7 10 9 9 9 10 10 10 10 9 9 3 1
30 28 39 40 50 45 38 36 34 35 33 31 29 27 28 29 27 26 23 20 16 14 13 13 12 10 8 8 7 6 4 3 3 3 3 4 4 5 5 6 7 6 3 6
29 25 35 40 46 44 40 37 35 33 32 32 32 32 27 26 26 25 24 22 19 16 15 15 13 11 11 12 10 8 8 7 9 8 8 10 6 5 5 3 2 2 3 4
27 28 36 40 42 42 41 39 35 35 33 34 32 31 32 32 32 30 29 27 23 17 18 17 22 22 20 20 18 13 16 15 13 13 15 13 13 13 12 12 11 10 11 12
33 36 38 40 41 39 39 41 40 37 37 36 38 38 37 34 34 32 31 29 28 25 20 17 14 16 22 26 25 21 22 22 19 18 18 14 16 16 16 15 15 15 16 20
36 37 40 41 38 35 37 37 40 39 36 36 34 32 32 33 35 38 37 31 23 26 20 14 14 16 18 20 17 21 23 24 24 21 21 20 20 20 20 21 20 19 17 19
36 40 40 39 38 33 32 33 37 39 38 34 33 33 34 31 35 38 37 35 31 31 24 21 26 19 14 10 14 15 18 21 23 24 26 25 23 21 20 14 11 15 17 18
35 39 40 39 34 35 34 33 33 34 34 34 34 34 32 32 34 33 29 32 40 33 28 33 23 20 15 12 14 12 12 15 16 18 20 22 17 17 15 12 8 6 6 12
33 35 36 38 37 36 31 33 34 33 37 36 34 36 33 36 37 33 33 35 39 35 32 35 25 21 14 11 8 7 7 7 9 11 11 11 11 13 13 11 8 3 2 8
34 35 36 37 35 32 34 36 39 37 36 36 37 39 41 41 43 40 39 39 41 46 35 34 33 25 18 16 15 12 11 11 12 15 17 17 19 18 16 13 6 2 5 8
32 32 31 32 33 31 32 34 35 36 37 38 38 39 42 44 48 52 48 45 43 46 47 39 38 33 27 25 20 17 15 15 17 16 16 15 14 15 10 6 5 5 8 9
Wind_Direction_500mb
298 296 297 293 253 226 242 303 282 359 309 92 102 75 64 36 38 48 37 47 220 206 207 220 225 219 237 233 227 234 230 228 233 238 237 238 246 251 259 257 253 254 253 253
279 229 251 258 232 247 243 223 239 310 296 113 121 94 70 56 52 52 50 40 61 108 192 189 233 230 236 240 237 254 250 249 245 261 258 260 264 272 264 265 262 256 250 250
269 84 283 246 242 236 269 271 297 256 50 153 151 103 74 57 42 60 55 43 37 157 145 203 200 210 208 219 249 241 243 241 249 258 258 265 266 263 261 260 259 258 260 254
275 283 249 43 39 300 281 291 252 272 241 133 119 122 105 65 44 31 62 42 41 48 238 218 222 233 243 244 242 246 242 236 237 256 255 259 265 267 267 263 260 255 254 251
260 257 264 240 213 242 239 259 228 252 153 154 137 141 99 77 66 48 52 49 33 32 33 258 249 239 250 240 221 216 229 208 213 234 248 253 259 264 265 260 260 248 253 251
250 273 273 60 62 260 267 253 180 185 179 175 175 226 107 115 75 56 46 31 28 25 13 339 289 229 204 196 216 232 235 226 243 264 271 275 280 268 263 265 255 247 246 242
245 256 267 67 77 207 236 22 214 187 179 181 206 51 128 124 104 82 58 48 33 38 43 45 47 196 212 195 189 206 192 217 234 251 277 280 277 274 262 243 234 236 242 240
233 269 260 117 163 250 41 9 282 190 185 144 118 121 131 129 113 102 111 92 86 70 62 71 89 148 196 197 204 228 222 248 239 264 279 298 262 276 268 244 247 228 211 216
254 346 91 194 266 268 283 312 221 168 152 157 149 151 148 154 123 137 144 124 110 100 89 82 89 109 168 186 200 209 208 213 209 210 262 32 106 149 216 186 170 182 187 201
249 235 238 237 239 246 248 238 189 172 157 155 153 155 161 154 145 146 147 130 114 105 106 101 91 94 98 109 141 185 186 183 198 186 180 190 225 211 242 237 222 180 202 222
246 263 230 244 230 223 207 178 171 168 163 163 156 158 161 156 149 150 139 128 133 126 100 103 100 97 87 80 85 110 116 122 135 152 164 188 211 229 227 243 220 212 241 245
252 290 215 305 208 196 180 170 168 163 151 152 152 158 157 151 145 141 144 134 121 113 115 111 105 99 96 93 95 98 96 96 99 104 105 103 101 99 97 96 84 95 115 109
264 250 243 225 177 175 175 167 164 163 158 145 147 152 152 147 146 143 139 131 127 121 111 106 105 103 98 97 95 96 97 98 102 98 95 95 90 90 90 86 79 79 89 87
212 187 186 181 181 178 174 165 153 154 152 149 149 148 149 146 137 139 136 132 126 124 119 113 108 108 104 102 100 101 98 102 102 100 98 91 83 80 82 92 91 91 90 89
211 211 241 190 171 168 165 159 156 155 155 151 149 153 153 148 148 145 138 135 135 137 134 124 121 114 112 110 109 109 104 106 108 108 106 100 99 99 101 101 108 101 93 83
203 198 188 187 178 172 167 166 166 164 161 161 162 163 160 157 155 154 156 151 139 147 145 140 130 122 117 118 114 111 117 120 123 118 110 105 107 107 101 102 97 102 96 95
181 189 191 189 185 180 177 176 175 169 166 167 167 167 166 167 165 167 174 173 162 151 147 149 165 154 139 129 127 130 123 104 114 96 103 109 105 106 105 101 96 101 85 24
205 214 200 192 185 182 177 174 173 171 171 168 169 172 176 180 180 184 186 189 194 199 203 204 203 206 205 205 188 201 187 199 162 153 147 114 129 131 121 107 95 89 43 12
199 204 197 191 186 182 178 178 180 177 175 177 181 185 184 187 189 192 194 200 207 213 225 224 241 252 228 231 221 239 252 254 259 252 227 227 229 218 224 235 275 325 321 325
187 181 174 179 183 184 184 183 179 188 190 191 194 196 197 196 198 200 203 208 210 214 226 228 249 249 241 245 251 247 259 267 269 265 255 245 246 247 249 253 242 273 282 287
186 181 178 179 184 187 192 192 191 192 195 197 202 207 209 208 205 205 206 213 227 226 225 242 236 241 252 245 245 254 251 256 256 263 256 258 251 252 250 255 262 271 284 289
187 188 187 188 189 197 200 200 203 205 204 206 209 213 213 213 212 213 215 225 232 218 210 220 229 235 227 236 242 242 247 249 245 248 250 251 256 257 257 258 258 271 279 285
188 189 189 192 195 200 199 199 201 204 207 212 215 211 211 220 221 215 221 226 214 212 205 215 231 256 233 209 227 235 241 241 243 248 250 252 256 259 266 270 267 276 283 290
189 191 193 193 193 194 198 200 204 206 207 213 214 212 216 213 208 210 212 217 209 214 208 223 241 228 225 231 249 246 240 239 236 237 231 224 229 229 231 242 256 284 297 313
190 191 192 193 196 205 211 208 204 201 209 214 213 211 212 208 209 211 209 212 217 214 203 226 223 224 226 238 176 173 176 181 184 184 186 179 186 184 189 180 165 165 332 318
181 186 194 198 203 208 202 201 204 210 212 214 216 215 215 214 213 211 208 208 220 211 202 219 214 214 216 179 166 151 142 146 139 150 149 156 152 148 149 151 165 205 315 328
184 184 187 192 200 199 201 207 210 215 218 219 222 221 220 218 218 217 214 208 208 202 203 215 213 202 195 181 180 169 157 157 154 148 156 159 164 165 183 205 242 282 320 326
Wind_Speed_850mb
14 7 8 13 15 13 21 11 17 14 11 16 11 8 15 17 19 16 19 8 10 25 28 35 38 36 49 52 41 52 49 40 35 34 38 36 34 35 37 37 37 41 42 42
18 10 17 20 13 15 11 10 7 7 8 11 15 17 17 18 19 21 20 14 11 9 14 17 23 22 25 33 45 49 48 46 38 46 49 49 49 51 45 46 42 40 38 38
23 4 18 26 27 23 12 8 11 16 12 14 14 12 12 12 13 16 20 16 13 1 13 25 27 42 24 15 20 39 37 44 61 56 51 46 50 48 52 56 50 44 44 39
20 12 23 6 7 9 20 12 12 8 6 8 13 15 12 11 10 13 18 15 14 7 9 16 21 18 19 23 19 23 26 37 39 37 37 44 44 51 48 48 57 68 53 43
15 22 23 12 11 11 18 27 13 14 13 14 19 18 13 12 10 11 15 10 10 12 9 8 17 15 16 18 17 11 14 17 19 23 24 32 43 45 47 48 54 53 62 60
14 18 20 8 11 3 7 20 18 15 21 24 19 11 9 11 8 9 9 11 11 12 8 7 9 11 5 9 9 11 18 17 16 18 20 24 30 37 38 43 43 47 48 60
16 16 15 12 5 5 14 4 5 17 19 19 7 13 24 17 13 11 10 11 12 13 14 12 3 4 10 10 14 15 16 16 13 14 16 21 23 19 19 21 24 31 39 47
9 11 23 10 7 11 10 12 8 12 9 12 23 19 20 15 13 11 9 9 11 12 15 12 10 9 12 15 16 12 12 14 14 11 11 15 13 15 23 19 22 31 29 20
9 9 7 10 14 5 9 9 3 13 17 22 25 25 21 17 15 11 12 11 14 15 14 17 15 11 8 13 14 11 16 16 13 9 5 4 13 2 5 6 4 8 11 12
9 19 18 18 18 16 12 10 15 20 25 26 26 25 22 20 23 14 15 14 13 14 16 18 21 18 18 16 12 13 13 12 9 9 12 4 5 7 7 8 9 11 11 11
20 27 12 21 21 17 15 15 24 21 22 22 26 25 24 24 26 23 14 14 14 16 17 19 21 22 24 25 22 19 18 15 15 14 14 5 7 8 8 6 6 9 13 12
19 10 13 3 20 21 23 25 24 22 22 21 21 23 24 24 25 24 19 16 17 16 19 22 22 24 25 23 21 21 24 24 26 23 22 20 20 18 13 11 8 6 5 6
25 9 12 7 22 26 26 26 24 21 21 24 23 25 26 28 26 27 22 21 20 20 20 22 23 24 24 24 23 26 31 31 30 28 27 26 24 21 17 19 20 20 18 18
19 15 11 20 25 29 27 27 28 24 24 25 27 27 27 29 32 28 27 24 22 21 20 21 20 23 23 22 23 21 23 24 24 21 20 19 21 26 24 20 19 18 16 16
29 27 15 24 27 31 30 30 30 29 28 28 27 28 29 30 30 30 31 24 19 17 16 16 16 17 19 19 20 19 17 15 17 16 18 17 14 15 13 11 12 11 12 10
29 30 23 31 41 40 36 32 29 29 29 30 29 28 28 30 30 29 27 20 17 16 16 15 14 16 17 16 16 14 14 14 13 11 10 9 9 9 10 10 8 8 6 5
31 34 33 35 44 43 41 35 31 33 32 31 28 29 30 30 27 25 23 19 16 13 12 12 12 13 13 12 12 8 7 7 10 9 9 9 10 10 10 10 9 9 3 1
30 28 39 40 50 45 38 36 34 35 33 31 29 27 28 29 27 26 23 20 16 14 13 13 12 10 8 8 7 6 4 3 3 3 3 4 4 5 5 6 7 6 3 6
29 25 35 40 46 44 40 37 35 33 32 32 32 32 27 26 26 25 24 22 19 16 15 15 13 11 11 12 10 8 8 7 9 8 8 10 6 5 5 3 2 2 3 4
27 28 36 40 42 42 41 39 35 35 33 34 32 31 32 32 32 30 29 27 23 17 18 17 22 22 20 20 18 13 16 15 13 13 15 13 13 13 12 12 11 10 11 12
33 36 38 40 41 39 39 41 40 37 37 36 38 38 37 34 34 32 31 29 28 25 20 17 14 16 22 26 25 21 22 22 19 18 18 14 16 16 16 15 15 15 16 20
36 37 40 41 38 35 37 37 40 39 36 36 34 32 32 33 35 38 37 31 23 26 20 14 14 16 18 20 17 21 23 24 24 21 21 20 20 20 20 21 20 19 17 19
36 40 40 39 38 33 32 33 37 39 38 34 33 33 34 31 35 38 37 35 31 31 24 21 26 19 14 10 14 15 18 21 23 24 26 25 23 21 20 14 11 15 17 18
35 39 40 39 34 35 34 33 33 34 34 34 34 34 32 32 34 33 29 32 40 33 28 33 23 20 15 12 14 12 12 15 16 18 20 22 17 17 15 12 8 6 6 12
33 35 36 38 37 36 31 33 34 33 37 36 34 36 33 36 37 33 33 35 39 35 32 35 25 21 14 11 8 7 7 7 9 11 11 11 11 13 13 11 8 3 2 8
34 35 36 37 35 32 34 36 39 37 36 36 37 39 41 41 43 40 39 39 41 46 35 34 33 25 18 16 15 12 11 11 12 15 17 17 19 18 16 13 6 2 5 8
32 32 31 32 33 31 32 34 35 36 37 38 38 39 42 44 48 52 48 45 43 46 47 39 38 33 27 25 20 17 15 15 17 16 16 15 14 15 10 6 5 5 8 9
Wind_Direction_850mb
298 296 297 293 253 226 242 303 282 359 309 92 102 75 64 36 38 48 37 47 220 206 207 220 225 219 237 233 227 234 230 228 233 238 237 238 246 251 259 257 253 254 253 253
279 229 251 258 232 247 243 223 239 310 296 113 121 94 70 56 52 52 50 40 61 108 192 189 233 230 236 240 237 254 250 249 245 261 258 260 264 272 264 265 262 256 250 250
269 84 283 246 242 236 269 271 297 256 50 153 151 103 74 57 42 60 55 43 37 157 145 203 200 210 208 219 249 241 243 241 249 258 258 265 266 263 261 260 259 258 260 254
275 283 249 43 39 300 281 291 252 272 241 133 119 122 105 65 44 31 62 42 41 48 238 218 222 233 243 244 242 246 242 236 237 256 255 259 265 267 267 263 260 255 254 251
260 257 264 240 213 242 239 259 228 252 153 154 137 141 99 77 66 48 52 49 33 32 33 258 249 239 250 240 221 216 229 208 213 234 248 253 259 264 265 260 260 248 253 251
250 273 273 60 62 260 267 253 180 185 179 175 175 226 107 115 75 56 46 31 28 25 13 339 289 229 204 196 216 232 235 226 243 264 271 275 280 268 263 265 255 247 246 242
245 256 267 67 77 207 236 22 214 187 179 181 206 51 128 124 104 82 58 48 33 38 43 45 47 196 212 195 189 206 192 217 234 251 277 280 277 274 262 243 234 236 242 240
233 269 260 117 163 250 41 9 282 190 185 144 118 121 131 129 113 102 111 92 86 70 62 71 89 148 196 197 204 228 222 248 239 264 279 298 262 276 268 244 247 228 211 216
254 346 91 194 266 268 283 312 221 168 152 157 149 151 148 154 123 137 144 124 110 100 89 82 89 109 168 186 200 209 208 213 209 210 262 32 106 149 216 186 170 182 187 201
249 235 238 237 239 246 248 238 189 172 157 155 153 155 161 154 145 146 147 130 114 105 106 101 91 94 98 109 141 185 186 183 198 186 180 190 225 211 242 237 222 180 202 222
246 263 230 244 230 223 207 178 171 168 163 163 156 158 161 156 149 150 139 128 133 126 100 103 100 97 87 80 85 110 116 122 135 152 164 188 211 229 227 243 220 212 241 245
252 290 215 305 208 196 180 170 168 163 151 152 152 158 157 151 145 141 144 134 121 113 115 111 105 99 96 93 95 98 96 96 99 104 105 103 101 99 97 96 84 95 115 109
264 250 243 225 177 175 175 167 164 163 158 145 147 152 152 147 146 143 139 131 127 121 111 106 105 103 98 97 95 96 97 98 102 98 95 95 90 90 90 86 79 79 89 87
212 187 186 181 181 178 174 165 153 154 152 149 149 148 149 146 137 139 136 132 126 124 119 113 108 108 104 102 100 101 98 102 102 100 98 91 83 80 82 92 91 91 90 89
211 211 241 190 171 168 165 159 156 155 155 151 149 153 153 148 148 145 138 135 135 137 134 124 121 114 112 110 109 109 104 106 108 108 106 100 99 99 101 101 108 101 93 83
203 198 188 187 178 172 167 166 166 164 161 161 162 163 160 157 155 154 156 151 139 147 145 140 130 122 117 118 114 111 117 120 123 118 110 105 107 107 101 102 97 102 96 95
181 189 191 189 185 180 177 176 175 169 166 167 167 167 166 167 165 167 174 173 162 151 147 149 165 154 139 129 127 130 123 104 114 96 103 109 105 106 105 101 96 101 85 24
205 214 200 192 185 182 177 174 173 171 171 168 169 172 176 180 180 184 186 189 194 199 203 204 203 206 205 205 188 201 187 199 162 153 147 114 129 131 121 107 95 89 43 12
199 204 197 191 186 182 178 178 180 177 175 177 181 185 184 187 189 192 194 200 207 213 225 224 241 252 228 231 221 239 252 254 259 252 227 227 229 218 224 235 275 325 321 325
187 181 174 179 183 184 184 183 179 188 190 191 194 196 197 196 198 200 203 208 210 214 226 228 249 249 241 245 251 247 259 267 269 265 255 245 246 247 249 253 242 273 282 287
186 181 178 179 184 187 192 192 191 192 195 197 202 207 209 208 205 205 206 213 227 226 225 242 236 241 252 245 245 254 251 256 256 263 256 258 251 252 250 255 262 271 284 289
187 188 187 188 189 197 200 200 203 205 204 206 209 213 213 213 212 213 215 225 232 218 210 220 229 235 227 236 242 242 247 249 245 248 250 251 256 257 257 258 258 271 279 285
188 189 189 192 195 200 199 199 201 204 207 212 215 211 211 220 221 215 221 226 214 212 205 215 231 256 233 209 227 235 241 241 243 248 250 252 256 259 266 270 267 276 283 290
189 191 193 193 193 194 198 200 204 206 207 213 214 212 216 213 208 210 212 217 209 214 208 223 241 228 225 231 249 246 240 239 236 237 231 224 229 229 231 242 256 284 297 313
190 191 192 193 196 205 211 208 204 201 209 214 213 211 212 208 209 211 209 212 217 214 203 226 223 224 226 238 176 173 176 181 184 184 186 179 186 184 189 180 165 165 332 318
181 186 194 198 203 208 202 201 204 210 212 214 216 215 215 214 213 211 208 208 220 211 202 219 214 214 216 179 166 151 142 146 139 150 149 156 152 148 149 151 165 205 315 328
184 184 187 192 200 199 201 207 210 215 218 219 222 221 220 218 218 217 214 208 208 202 203 215 213 202 195 181 180 169 157 157 154 148 156 159 164 165 183 205 242 282 320 326